logo
Search for airport 
image banner adimage banner adimage banner ad
image banner ad

EVLA - Liepaja

Located in Liepaja, Latvia

ICAO - EVLA, IATA - LPX

Data provided by Airmate  

General information

Coordinates: N56°31'3" E21°5'49"
Elevation is 18 feet MSL.
Magnetic variation is 6° East
View others Airports in Liepaja District

Operational data

Special qualification required
Current time UTC:
Current local time:
Weather
METAR: EVLA 231550Z AUTO 21009KT 9999 FEW042/// 05/03 Q1000
TAF: TAF EVLA 231427Z 2315/2415 21008KT CAVOK BECMG 2318/2320 13005KT TEMPO 2318/2403 4000 BR BECMG 2401/2403 BKN010 TEMPO 2403/2415 3000 -RA BKN004
View NOTAMs / SUP AIP / TFR affecting this airport [VIEW]
Communications frequencies: [VIEW]

Runways:

RWY identifierQFULength (ft)Width (ft)SurfaceLDA (ft)
066568131UNK
246568131UNK

Airport contact information

Address: Liepaja Latvia

Satellite view of EVLA